Time,TemperatureF,DewpointF,PressureIn,WindDirection,WindDirectionDegrees,WindSpeedMPH,WindSpeedGustMPH,Humidity,HourlyPrecipIn,Conditions,Clouds,dailyrainin,SoftwareType,DateUTC
2013-03-17 00:03:00,30.0,26.0,29.85,NNE,23,0.0,0.0,85,0.00,,,0.02,,2013-03-17 04:03:00,
2013-03-17 00:13:00,30.0,26.0,29.85,NNE,23,0.0,0.0,85,0.00,,,0.02,,2013-03-17 04:13:00,
2013-03-17 00:23:00,30.0,26.0,29.86,NNE,23,0.0,1.0,85,0.00,,,0.02,,2013-03-17 04:23:00,
2013-03-17 00:33:00,30.0,26.0,29.86,NNE,24,0.0,0.0,85,0.00,,,0.04,,2013-03-17 04:33:00,
2013-03-17 00:43:00,30.0,26.0,29.86,NNE,24,0.0,0.0,85,0.00,,,0.04,,2013-03-17 04:43:00,
2013-03-17 00:53:00,30.0,26.0,29.86,NNE,24,0.0,0.0,85,0.00,,,0.04,,2013-03-17 04:53:00,
2013-03-17 01:03:00,30.0,26.0,29.87,NNE,24,0.0,0.0,85,0.00,,,0.04,,2013-03-17 05:03:00,
2013-03-17 01:12:00,30.0,26.0,29.87,NNE,24,0.0,0.0,85,0.00,,,0.04,,2013-03-17 05:12:00,
2013-03-17 01:22:00,30.0,26.0,29.87,NNE,23,0.0,0.0,85,0.00,,,0.04,,2013-03-17 05:22:00,
2013-03-17 01:32:00,29.0,25.0,29.86,NNE,23,0.0,0.0,85,0.00,,,0.04,,2013-03-17 05:32:00,
2013-03-17 01:42:00,29.0,25.0,29.86,NNE,23,0.0,0.0,85,0.00,,,0.04,,2013-03-17 05:42:00,
2013-03-17 01:52:00,29.0,25.0,29.86,NNE,23,0.0,0.0,85,0.00,,,0.04,,2013-03-17 05:52:00,
2013-03-17 02:02:00,29.0,25.0,29.86,NNE,23,0.0,0.0,85,0.00,,,0.04,,2013-03-17 06:02:00,
2013-03-17 02:12:00,29.0,25.0,29.86,NNE,23,0.0,0.0,85,0.00,,,0.04,,2013-03-17 06:12:00,
2013-03-17 02:22:00,29.0,25.0,29.87,NNE,24,0.0,0.0,85,0.01,,,0.05,,2013-03-17 06:22:00,
2013-03-17 02:32:00,28.0,24.0,29.87,NNE,23,0.0,0.0,85,0.00,,,0.05,,2013-03-17 06:32:00,
2013-03-17 02:42:00,28.0,24.0,29.87,NNE,23,0.0,0.0,85,0.00,,,0.05,,2013-03-17 06:42:00,
2013-03-17 02:52:00,28.0,24.0,29.88,NNE,23,0.0,0.0,86,0.00,,,0.05,,2013-03-17 06:52:00,
2013-03-17 03:02:00,28.0,24.0,29.88,NNE,23,0.0,0.0,86,0.00,,,0.05,,2013-03-17 07:02:00,
2013-03-17 03:12:00,28.0,24.0,29.88,NNE,23,0.0,0.0,86,0.00,,,0.05,,2013-03-17 07:12:00,
2013-03-17 03:22:00,28.0,24.0,29.88,NNE,23,0.0,0.0,86,0.00,,,0.05,,2013-03-17 07:22:00,
2013-03-17 03:32:00,28.0,24.0,29.88,NNE,23,0.0,0.0,86,0.00,,,0.05,,2013-03-17 07:32:00,
2013-03-17 03:42:00,28.0,24.0,29.88,NNE,23,0.0,0.0,86,0.00,,,0.05,,2013-03-17 07:42:00,
2013-03-17 03:52:00,28.0,25.0,29.89,NNE,23,0.0,0.0,87,0.00,,,0.05,,2013-03-17 07:52:00,
2013-03-17 04:03:00,28.0,25.0,29.89,NNE,23,0.0,0.0,87,0.00,,,0.05,,2013-03-17 08:03:00,
2013-03-17 04:13:00,28.0,25.0,29.89,NNE,23,0.0,0.0,87,0.00,,,0.05,,2013-03-17 08:13:00,
2013-03-17 04:22:00,28.0,25.0,29.89,NNE,23,0.0,0.0,87,0.00,,,0.05,,2013-03-17 08:22:00,
2013-03-17 04:32:00,27.0,24.0,29.90,NNE,23,0.0,0.0,87,0.00,,,0.05,,2013-03-17 08:32:00,
2013-03-17 04:42:00,27.0,24.0,29.90,NNE,23,0.0,0.0,87,0.00,,,0.05,,2013-03-17 08:42:00,
2013-03-17 04:52:00,27.0,24.0,29.90,NNE,23,0.0,0.0,87,0.00,,,0.05,,2013-03-17 08:52:00,
2013-03-17 05:03:00,27.0,24.0,29.90,NNE,23,0.0,0.0,87,0.00,,,0.05,,2013-03-17 09:03:00,
2013-03-17 05:12:00,27.0,24.0,29.90,NNE,23,0.0,0.0,87,0.00,,,0.05,,2013-03-17 09:12:00,
2013-03-17 05:22:00,27.0,24.0,29.90,NNE,23,0.0,0.0,87,0.00,,,0.05,,2013-03-17 09:22:00,
2013-03-17 05:32:00,26.0,23.0,29.92,WNW,288,0.0,2.0,87,0.00,,,0.05,,2013-03-17 09:32:00,
2013-03-17 05:43:00,26.0,23.0,29.92,WNW,288,0.0,2.0,87,0.00,,,0.05,,2013-03-17 09:43:00,
2013-03-17 05:53:00,26.0,23.0,29.93,WNW,288,0.0,0.0,87,0.00,,,0.05,,2013-03-17 09:53:00,
2013-03-17 06:03:00,26.0,22.0,29.94,WNW,288,0.0,3.0,86,0.00,,,0.05,,2013-03-17 10:03:00,
2013-03-17 06:13:00,26.0,22.0,29.94,WNW,288,0.0,3.0,86,0.00,,,0.05,,2013-03-17 10:13:00,
2013-03-17 06:23:00,26.0,22.0,29.94,WNW,288,0.0,3.0,86,0.00,,,0.05,,2013-03-17 10:23:00,
2013-03-17 06:33:00,26.0,22.0,29.95,WNW,289,1.0,2.0,83,0.00,,,0.05,,2013-03-17 10:33:00,
2013-03-17 06:42:00,26.0,22.0,29.95,WNW,289,1.0,2.0,83,0.00,,,0.05,,2013-03-17 10:42:00,
2013-03-17 06:52:00,26.0,22.0,29.95,WNW,289,1.0,2.0,83,0.00,,,0.05,,2013-03-17 10:52:00,
2013-03-17 07:03:00,26.0,21.0,29.96,WNW,299,0.0,2.0,80,0.00,,,0.05,,2013-03-17 11:03:00,
2013-03-17 07:12:00,26.0,21.0,29.96,WNW,299,0.0,2.0,80,0.00,,,0.05,,2013-03-17 11:12:00,
2013-03-17 07:22:00,25.0,19.0,29.98,WNW,300,0.0,1.0,79,0.00,,,0.05,,2013-03-17 11:22:00,
2013-03-17 07:32:00,25.0,19.0,29.99,WNW,300,0.0,1.0,77,0.00,,,0.05,,2013-03-17 11:32:00,
2013-03-17 07:42:00,25.0,19.0,29.99,WNW,300,0.0,1.0,77,0.00,,,0.05,,2013-03-17 11:42:00,
2013-03-17 07:52:00,25.0,19.0,29.99,WNW,300,0.0,1.0,77,0.00,,,0.05,,2013-03-17 11:52:00,
2013-03-17 08:02:00,25.0,18.0,30.01,WNW,300,0.0,0.0,74,0.00,,,0.05,,2013-03-17 12:02:00,
2013-03-17 08:12:00,25.0,18.0,30.01,WNW,300,0.0,0.0,74,0.00,,,0.05,,2013-03-17 12:12:00,
2013-03-17 08:22:00,25.0,18.0,30.01,WNW,300,0.0,0.0,74,0.00,,,0.05,,2013-03-17 12:22:00,
2013-03-17 08:33:00,27.0,17.0,30.02,North,357,1.0,3.0,66,0.00,,,0.05,,2013-03-17 12:33:00,
2013-03-17 08:43:00,27.0,17.0,30.02,North,357,1.0,3.0,66,0.00,,,0.05,,2013-03-17 12:43:00,
2013-03-17 08:52:00,28.0,17.0,30.02,NNE,33,1.0,4.0,64,0.00,,,0.02,,2013-03-17 12:52:00,
2013-03-17 09:02:00,28.0,17.0,30.03,NNE,26,2.0,8.0,62,0.00,,,0.02,,2013-03-17 13:02:00,
2013-03-17 09:12:00,28.0,17.0,30.03,NNE,26,2.0,8.0,62,0.00,,,0.02,,2013-03-17 13:12:00,
2013-03-17 09:22:00,28.0,17.0,30.03,NNE,26,2.0,8.0,62,0.00,,,0.02,,2013-03-17 13:22:00,
2013-03-17 09:32:00,30.0,19.0,30.05,WNW,294,2.0,4.0,64,0.00,,,0.02,,2013-03-17 13:32:00,
2013-03-17 09:42:00,30.0,19.0,30.05,WNW,294,2.0,4.0,64,0.00,,,0.02,,2013-03-17 13:42:00,
2013-03-17 09:52:00,30.0,19.0,30.05,WNW,294,2.0,4.0,64,0.00,,,0.02,,2013-03-17 13:52:00,
2013-03-17 10:02:00,31.0,18.0,30.06,NNW,327,0.0,4.0,59,0.00,,,0.02,,2013-03-17 14:02:00,
2013-03-17 10:12:00,31.0,18.0,30.06,NNW,327,0.0,4.0,59,0.00,,,0.02,,2013-03-17 14:12:00,
2013-03-17 10:22:00,29.0,15.0,30.06,NNE,33,4.0,7.0,55,0.00,,,0.02,,2013-03-17 14:22:00,
2013-03-17 10:33:00,30.0,16.0,30.06,NE,39,2.0,6.0,55,0.00,,,0.02,,2013-03-17 14:33:00,
2013-03-17 10:42:00,30.0,16.0,30.06,NE,39,2.0,6.0,55,0.00,,,0.02,,2013-03-17 14:42:00,
2013-03-17 10:53:00,30.0,16.0,30.06,South,170,1.0,7.0,56,0.00,,,0.02,,2013-03-17 14:53:00,
2013-03-17 11:02:00,30.0,16.0,30.06,NNE,29,2.0,4.0,55,0.00,,,0.02,,2013-03-17 15:02:00,
2013-03-17 11:12:00,30.0,16.0,30.06,NNE,29,2.0,4.0,55,0.00,,,0.02,,2013-03-17 15:12:00,
2013-03-17 11:23:00,30.0,16.0,30.06,NNE,29,2.0,4.0,55,0.00,,,0.02,,2013-03-17 15:23:00,
2013-03-17 11:33:00,31.0,16.0,30.08,East,101,0.0,4.0,53,0.00,,,0.02,,2013-03-17 15:33:00,
2013-03-17 11:43:00,31.0,16.0,30.08,East,101,0.0,4.0,53,0.00,,,0.02,,2013-03-17 15:43:00,
2013-03-17 11:53:00,31.0,15.0,30.07,NNW,343,2.0,7.0,52,0.00,,,0.02,,2013-03-17 15:53:00,
2013-03-17 12:03:00,31.0,14.0,30.07,WNW,297,1.0,5.0,49,0.00,,,0.02,,2013-03-17 16:03:00,
2013-03-17 12:12:00,31.0,14.0,30.07,WNW,297,1.0,5.0,49,0.00,,,0.02,,2013-03-17 16:12:00,
2013-03-17 12:23:00,32.0,17.0,30.06,NNE,17,2.0,9.0,53,0.00,,,0.02,,2013-03-17 16:23:00,
2013-03-17 12:33:00,32.0,16.0,30.06,NNW,346,2.0,6.0,51,0.00,,,0.02,,2013-03-17 16:33:00,
2013-03-17 12:43:00,32.0,16.0,30.06,NNW,346,2.0,6.0,51,0.00,,,0.02,,2013-03-17 16:43:00,
2013-03-17 12:52:00,32.0,16.0,30.07,North,6,2.0,7.0,51,0.00,,,0.02,,2013-03-17 16:52:00,
2013-03-17 13:02:00,33.0,17.0,30.07,NW,309,1.0,4.0,51,0.00,,,0.02,,2013-03-17 17:02:00,
2013-03-17 13:12:00,33.0,17.0,30.07,NW,309,1.0,4.0,51,0.00,,,0.02,,2013-03-17 17:12:00,
2013-03-17 13:22:00,33.0,17.0,30.07,NW,309,1.0,4.0,51,0.00,,,0.02,,2013-03-17 17:22:00,
2013-03-17 13:33:00,33.0,16.0,30.08,NNE,24,4.0,8.0,49,0.00,,,0.02,,2013-03-17 17:33:00,
2013-03-17 13:42:00,33.0,16.0,30.08,NNE,24,4.0,8.0,49,0.00,,,0.02,,2013-03-17 17:42:00,
2013-03-17 13:52:00,33.0,16.0,30.08,NNE,29,3.0,7.0,49,0.00,,,0.02,,2013-03-17 17:52:00,
2013-03-17 14:02:00,35.0,18.0,30.07,WSW,242,1.0,7.0,49,0.00,,,0.02,,2013-03-17 18:02:00,
2013-03-17 14:12:00,35.0,18.0,30.07,WSW,242,1.0,7.0,49,0.00,,,0.02,,2013-03-17 18:12:00,
2013-03-17 14:22:00,35.0,18.0,30.07,WSW,242,1.0,7.0,49,0.00,,,0.02,,2013-03-17 18:22:00,
2013-03-17 14:32:00,35.0,18.0,30.07,WSW,242,1.0,7.0,49,0.00,,,0.02,,2013-03-17 18:32:00,
2013-03-17 14:42:00,35.0,18.0,30.07,WSW,242,1.0,7.0,49,0.00,,,0.02,,2013-03-17 18:42:00,
2013-03-17 14:52:00,35.0,16.0,30.07,WSW,254,1.0,5.0,46,0.00,,,0.02,,2013-03-17 18:52:00,
2013-03-17 15:02:00,35.0,15.0,30.07,East,80,1.0,6.0,43,0.00,,,0.02,,2013-03-17 19:02:00,
2013-03-17 15:12:00,35.0,15.0,30.07,East,80,1.0,6.0,43,0.00,,,0.02,,2013-03-17 19:12:00,
2013-03-17 15:22:00,35.0,15.0,30.06,NE,34,1.0,10.0,44,0.00,,,0.02,,2013-03-17 19:22:00,
2013-03-17 15:33:00,36.0,15.0,30.06,WNW,289,1.0,4.0,42,0.00,,,0.02,,2013-03-17 19:33:00,
2013-03-17 15:42:00,36.0,15.0,30.06,WNW,289,1.0,4.0,42,0.00,,,0.02,,2013-03-17 19:42:00,
2013-03-17 15:53:00,36.0,15.0,30.06,NW,314,1.0,7.0,42,0.00,,,0.01,,2013-03-17 19:53:00,
2013-03-17 16:02:00,37.0,12.0,30.07,NW,309,2.0,7.0,35,0.00,,,0.01,,2013-03-17 20:02:00,
2013-03-17 16:12:00,37.0,12.0,30.07,NW,309,2.0,7.0,35,0.00,,,0.01,,2013-03-17 20:12:00,
2013-03-17 16:22:00,37.0,12.0,30.07,NW,309,2.0,7.0,35,0.00,,,0.01,,2013-03-17 20:22:00,
2013-03-17 16:33:00,37.0,11.0,30.07,West,262,1.0,3.0,33,0.00,,,0.00,,2013-03-17 20:33:00,
2013-03-17 16:42:00,37.0,11.0,30.07,West,262,1.0,3.0,33,0.00,,,0.00,,2013-03-17 20:42:00,
2013-03-17 16:52:00,37.0,11.0,30.07,West,262,1.0,3.0,33,0.00,,,0.00,,2013-03-17 20:52:00,
2013-03-17 17:03:00,37.0,9.0,30.08,NW,306,2.0,7.0,31,0.00,,,0.00,,2013-03-17 21:03:00,
2013-03-17 17:12:00,37.0,9.0,30.08,NW,306,2.0,7.0,31,0.00,,,0.00,,2013-03-17 21:12:00,
2013-03-17 17:22:00,37.0,9.0,30.08,NW,306,2.0,7.0,31,0.00,,,0.00,,2013-03-17 21:22:00,
2013-03-17 17:33:00,36.0,10.0,30.09,North,4,1.0,6.0,33,0.00,,,0.00,,2013-03-17 21:33:00,
2013-03-17 17:43:00,36.0,10.0,30.09,North,4,1.0,6.0,33,0.00,,,0.00,,2013-03-17 21:43:00,
2013-03-17 17:52:00,36.0,10.0,30.09,NW,304,1.0,4.0,33,0.00,,,0.00,,2013-03-17 21:52:00,
2013-03-17 18:03:00,36.0,10.0,30.10,East,98,1.0,3.0,33,0.00,,,0.00,,2013-03-17 22:03:00,
2013-03-17 18:13:00,36.0,9.0,30.11,WSW,245,0.0,2.0,32,0.00,,,0.00,,2013-03-17 22:13:00,
2013-03-17 18:23:00,36.0,9.0,30.11,WSW,245,0.0,2.0,32,0.00,,,0.00,,2013-03-17 22:23:00,
2013-03-17 18:33:00,35.0,9.0,30.11,ENE,66,0.0,3.0,34,0.00,,,0.00,,2013-03-17 22:33:00,
2013-03-17 18:42:00,35.0,9.0,30.11,ENE,66,0.0,3.0,34,0.00,,,0.00,,2013-03-17 22:42:00,
2013-03-17 18:52:00,35.0,9.0,30.12,NNW,336,1.0,2.0,33,0.00,,,0.00,,2013-03-17 22:52:00,
2013-03-17 19:03:00,34.0,9.0,30.12,NW,320,0.0,2.0,34,0.00,,,0.00,,2013-03-17 23:03:00,
2013-03-17 19:12:00,34.0,9.0,30.12,NW,320,0.0,2.0,34,0.00,,,0.00,,2013-03-17 23:12:00,
2013-03-17 19:22:00,34.0,9.0,30.12,NW,320,0.0,2.0,34,0.00,,,0.00,,2013-03-17 23:22:00,
2013-03-17 19:33:00,34.0,10.0,30.14,NNW,346,0.0,1.0,36,0.00,,,0.00,,2013-03-17 23:33:00,
2013-03-17 19:42:00,34.0,10.0,30.14,NNW,346,0.0,1.0,36,0.00,,,0.00,,2013-03-17 23:42:00,
2013-03-17 19:52:00,34.0,10.0,30.14,NNW,346,0.0,1.0,36,0.00,,,0.00,,2013-03-17 23:52:00,
2013-03-17 20:03:00,33.0,8.0,30.16,ENE,71,0.0,0.0,35,0.00,,,0.00,,2013-03-18 00:03:00,
2013-03-17 20:12:00,33.0,8.0,30.16,ENE,71,0.0,0.0,35,0.00,,,0.00,,2013-03-18 00:12:00,
2013-03-17 20:22:00,33.0,10.0,30.16,NNE,30,1.0,4.0,37,0.00,,,0.00,,2013-03-18 00:22:00,
2013-03-17 20:33:00,33.0,8.0,30.17,North,11,0.0,2.0,34,0.00,,,0.00,,2013-03-18 00:33:00,
2013-03-17 20:42:00,33.0,8.0,30.17,North,11,0.0,2.0,34,0.00,,,0.00,,2013-03-18 00:42:00,
2013-03-17 20:52:00,33.0,8.0,30.17,North,11,0.0,2.0,34,0.00,,,0.00,,2013-03-18 00:52:00,
2013-03-17 21:02:00,32.0,7.0,30.19,NNE,16,1.0,3.0,35,0.00,,,0.00,,2013-03-18 01:02:00,
2013-03-17 21:12:00,32.0,7.0,30.19,NNE,16,1.0,3.0,35,0.00,,,0.00,,2013-03-18 01:12:00,
2013-03-17 21:22:00,32.0,7.0,30.19,NNE,16,1.0,3.0,35,0.00,,,0.00,,2013-03-18 01:22:00,
2013-03-17 21:32:00,32.0,8.0,30.20,NNE,19,0.0,1.0,36,0.00,,,0.00,,2013-03-18 01:32:00,
2013-03-17 21:42:00,32.0,8.0,30.20,NNE,19,0.0,1.0,36,0.00,,,0.00,,2013-03-18 01:42:00,
2013-03-17 21:52:00,32.0,8.0,30.20,NNE,19,0.0,1.0,36,0.00,,,0.00,,2013-03-18 01:52:00,
2013-03-17 22:02:00,32.0,7.0,30.21,NNE,19,0.0,2.0,35,0.00,,,0.00,,2013-03-18 02:02:00,
2013-03-17 22:12:00,32.0,7.0,30.21,NNE,19,0.0,2.0,35,0.00,,,0.00,,2013-03-18 02:12:00,
2013-03-17 22:22:00,31.0,7.0,30.22,NNE,19,0.0,2.0,35,0.00,,,0.00,,2013-03-18 02:22:00,
2013-03-17 22:32:00,31.0,7.0,30.23,North,1,1.0,4.0,35,0.00,,,0.00,,2013-03-18 02:32:00,
2013-03-17 22:42:00,31.0,7.0,30.23,North,1,1.0,4.0,35,0.00,,,0.00,,2013-03-18 02:42:00,
2013-03-17 22:52:00,31.0,7.0,30.23,North,1,1.0,4.0,35,0.00,,,0.00,,2013-03-18 02:52:00,
2013-03-17 23:03:00,30.0,6.0,30.25,North,7,1.0,6.0,35,0.00,,,0.00,,2013-03-18 03:03:00,
2013-03-17 23:11:00,30.0,6.0,30.25,North,7,1.0,6.0,35,0.00,,,0.00,,2013-03-18 03:11:00,
2013-03-17 23:22:00,30.0,6.0,30.25,North,7,1.0,6.0,35,0.00,,,0.00,,2013-03-18 03:22:00,
2013-03-17 23:33:00,30.0,6.0,30.25,NNE,30,1.0,3.0,36,0.00,,,0.00,,2013-03-18 03:33:00,
2013-03-17 23:42:00,30.0,6.0,30.25,NNE,30,1.0,3.0,36,0.00,,,0.00,,2013-03-18 03:42:00,
2013-03-17 23:53:00,30.0,7.0,30.24,NE,53,1.0,4.0,37,0.00,,,0.00,,2013-03-18 03:53:00,